Tracking 27405 objects as of 1-Jun-2023
HD Live streaming from Space Station
objects crossing your sky now

COSMOS 489

Track COSMOS 489 now!
10-day predictions
COSMOS 489 is classified as:


NORAD ID: 6019
Int'l Code: 1972-035A
Perigee: 967.1 km
Apogee: 1,003.4 km
Inclination: 74.0 °
Period: 104.7 minutes
Semi major axis: 7356 km
RCS: 1.7983 m2 (large)
Launch date: May 6, 1972
Source: Commonwealth of Independent States (former USSR) (CIS)
Launch site: PLESETSK MISSILE AND SPACE COMPLEX (PKMTR)
Your satellite tracking list
Your tracking list is empty




NASA's NSSDC Master Catalog

Two Line Element Set (TLE):
1 06019U 72035A   23152.08604003  .00000041  00000-0  65382-4 0  9990
2 06019  74.0217  16.4965 0024678 197.4288 315.3823 13.76000084563903
Source of the keplerian elements: AFSPC